ASIASAT 9 (42942 NORAD) Tracking and Keplerian Element Data

This shows tracking and keplerian element data for the satellite.

Feedback or suggestion? Click here.




ElementValue
Catalog42942
NameASIASAT 9
Epoch Orbit1831
Epoch Day270.11577303
Epoch Year2022
RAAN192.6317
Inclination0.003
Eccentricity0.000237
Argument of Perigee0.4149
Mean Anonmoly336.6444
Mean Motion1.00270607
Decay Rate-3.56E-06
L11 42942U 17057A 22270.11577303 -.00000356 00000+0 00000+0 0 9994
L22 42942 0.0030 192.6317 0002370 0.4149 336.6444 1.00270607 18311

Live tracking and technical data element details for ASIASAT 9 (NORAD 42942). ASIASAT 9 can be tracked NOW for your location showing map with azimuth and elevation plus other details from your city location.

Track the satellite on the map from your city or location and see movement details for azimuth, elevation, latitude, longitude, range, height, and movement on the map or in text.







IsCatalogInMostPopularTable: catalog: 42942, numindb: 637
Update: records affected: 1



GetName: 42942 ASIASAT 9

Hit Count: updated at: Wed, 28 Sep 2022 23:21:56 GMT